Weather reports worldwide

Advertisment
Logan Botanic Garden, United Kingdom (99193): temperature & dewpoint: 11.08.2017 08:00:00 - 17.08.2017 08:00:00 (BST)Logan Botanic Garden, United Kingdom (99193): temperature -20cm: 11.08.2017 08:00:00 - 17.08.2017 08:00:00 (BST)Logan Botanic Garden, United Kingdom (99193): visibility: 11.08.2017 08:00:00 - 17.08.2017 08:00:00 (BST)Logan Botanic Garden, United Kingdom (99193): precipitation: 11.08.2017 08:00:00 - 17.08.2017 08:00:00 (BST)
Date & Time tt [°C] td [°C] tt -20cm [°C] vv [km] rr [mm]
17.08.2017 08:00:00 14,1 12,8 - - 0,0
17.08.2017 07:00:00 11,9 11,4 - - 0,0
17.08.2017 06:00:00 12,0 11,2 - - 0,0
17.08.2017 05:00:00 12,3 11,5 - - 0,0
17.08.2017 04:00:00 12,4 11,8 - - 0,2
17.08.2017 03:00:00 13,1 12,6 - - 0,0
17.08.2017 02:00:00 13,5 12,9 - - 0,0
17.08.2017 01:00:00 14,7 14,4 - - 0,2
17.08.2017 00:00:00 14,6 14,4 - - 6,8
16.08.2017 23:00:00 14,9 14,7 - - 0,8
16.08.2017 22:00:00 15,0 14,8 - - 0,4
16.08.2017 21:00:00 15,1 14,7 - - 0,0
16.08.2017 20:00:00 15,2 14,5 - - 0,0
16.08.2017 19:00:00 15,4 14,4 - - 0,0
16.08.2017 18:00:00 15,4 14,3 - - 0,0
16.08.2017 17:00:00 15,4 13,9 - - 0,0
16.08.2017 16:00:00 15,7 13,9 - - 0,0
16.08.2017 15:00:00 15,3 13,9 - - 0,4
16.08.2017 14:00:00 14,7 14,0 - - 1,8
16.08.2017 13:00:00 14,7 13,6 - - 0,8
16.08.2017 12:00:00 15,1 13,4 - - 0,0
16.08.2017 11:00:00 14,8 13,5 - - 0,8
16.08.2017 10:00:00 14,9 13,0 16,0 0,2 0,0
16.08.2017 09:00:00 14,5 12,9 - - 0,0
16.08.2017 08:00:00 14,4 12,4 - - 0,0
16.08.2017 07:00:00 14,0 12,2 - - 0,0
16.08.2017 06:00:00 13,9 12,9 - - 0,0
16.08.2017 05:00:00 13,9 12,9 - - 0,0
16.08.2017 04:00:00 12,3 11,5 - - 0,0
16.08.2017 03:00:00 13,2 12,2 - - 0,0
16.08.2017 02:00:00 13,6 12,1 - - 0,0
16.08.2017 01:00:00 13,7 11,9 - - 0,0
16.08.2017 00:00:00 14,3 12,7 - - 0,0
15.08.2017 23:00:00 13,9 12,7 - - 0,0
15.08.2017 22:00:00 13,8 12,7 - - 0,0
15.08.2017 21:00:00 13,5 12,2 - - 0,0
15.08.2017 20:00:00 14,5 12,7 - - 0,0
15.08.2017 19:00:00 15,1 13,0 - - 0,0
15.08.2017 18:00:00 14,9 12,6 - - 0,0
15.08.2017 17:00:00 15,5 13,6 - - 1,6
15.08.2017 16:00:00 14,9 12,5 - - 0,2
15.08.2017 15:00:00 15,9 13,1 - - 0,0
15.08.2017 14:00:00 15,8 13,0 - - 0,0
15.08.2017 13:00:00 16,4 12,7 - - 0,0
15.08.2017 12:00:00 16,0 12,7 - - 0,0
15.08.2017 11:00:00 15,1 12,6 - - 0,0
15.08.2017 10:00:00 14,5 12,8 15,7 10 0,0
15.08.2017 09:00:00 14,6 13,2 - - 0,0
15.08.2017 08:00:00 13,9 13,5 - - 0,0
15.08.2017 07:00:00 12,8 12,4 - - 0,0
15.08.2017 06:00:00 12,7 12,3 - - 0,0
15.08.2017 05:00:00 12,1 11,5 - - 0,0
15.08.2017 04:00:00 12,2 11,5 - - 0,2
15.08.2017 03:00:00 13,4 13,1 - - 2,2
15.08.2017 02:00:00 13,3 13,0 - - 1,6
15.08.2017 01:00:00 13,9 13,7 - - 2,4
15.08.2017 00:00:00 14,2 13,9 - - 0,6
14.08.2017 23:00:00 14,2 13,9 - - 0,4
14.08.2017 22:00:00 14,2 13,9 - 10 1,2
14.08.2017 21:00:00 14,5 14,1 - - 0,8
14.08.2017 20:00:00 14,6 14,1 - - 2,0
14.08.2017 19:00:00 14,7 14,3 - - 4,8
14.08.2017 18:00:00 14,7 14,3 - - 4,4
14.08.2017 17:00:00 14,8 14,2 - - 0,8
14.08.2017 16:00:00 15,1 14,3 - - 0,0
14.08.2017 15:00:00 15,1 14,2 - - 0,0
14.08.2017 14:00:00 15,2 14,2 - - 0,0
14.08.2017 13:00:00 15,1 14,1 - - 0,0
14.08.2017 12:00:00 15,2 14,5 - - 0,2
14.08.2017 11:00:00 14,9 14,4 - - 0,0
14.08.2017 10:00:00 14,6 14,2 16,2 0,5 0,2
14.08.2017 09:00:00 14,3 13,9 - - 0,2
14.08.2017 08:00:00 14,0 13,5 - - 2,6
14.08.2017 07:00:00 13,6 13,0 - - 2,2
14.08.2017 06:00:00 12,9 12,3 - - 2,6
14.08.2017 05:00:00 12,8 12,0 - - 2,2
14.08.2017 04:00:00 13,2 12,3 - - 1,0
14.08.2017 03:00:00 13,4 11,6 - - 0,2
14.08.2017 02:00:00 14,0 12,0 - - 0,2
14.08.2017 01:00:00 14,6 11,0 - - 0,0
14.08.2017 00:00:00 14,1 11,0 - - 0,0
13.08.2017 23:00:00 13,8 10,5 - - 0,0
13.08.2017 22:00:00 13,8 10,7 - - 0,0
13.08.2017 21:00:00 13,4 9,7 - - 0,0
13.08.2017 20:00:00 14,5 10,8 - - 0,0
13.08.2017 19:00:00 14,6 10,5 - - 0,0
13.08.2017 18:00:00 15,0 9,9 - - 0,0
13.08.2017 17:00:00 15,6 9,4 - - -
13.08.2017 16:00:00 16,2 9,8 - - 0,0
13.08.2017 15:00:00 16,3 9,2 - - 0,0
13.08.2017 14:00:00 15,6 8,2 - - 0,0
13.08.2017 13:00:00 15,2 10,1 - - 0,0
13.08.2017 12:00:00 15,1 10,1 - - 0,0
13.08.2017 11:00:00 14,5 9,8 - - 0,0
13.08.2017 10:00:00 14,0 9,3 16,0 - 0,0
13.08.2017 09:00:00 13,7 9,8 - - 0,0
13.08.2017 08:00:00 12,9 10,8 - - 0,0
13.08.2017 07:00:00 10,0 9,3 - - 0,0
13.08.2017 06:00:00 9,3 8,6 - - 0,0
13.08.2017 05:00:00 9,7 9,0 - - 0,0
13.08.2017 04:00:00 9,6 8,8 - - 0,0
13.08.2017 03:00:00 9,5 8,8 - - 0,0
13.08.2017 02:00:00 8,8 7,6 - - 0,0
13.08.2017 01:00:00 10,2 8,4 - - 0,0
13.08.2017 00:00:00 11,0 8,8 - - 0,0
12.08.2017 23:00:00 11,8 9,1 - - 0,0
12.08.2017 22:00:00 11,9 8,9 - - 0,0
12.08.2017 21:00:00 12,8 8,9 - - 0,0
12.08.2017 20:00:00 13,7 9,0 - - 0,0
12.08.2017 19:00:00 14,5 9,4 - - 0,0
12.08.2017 18:00:00 15,0 10,0 - - 0,0
12.08.2017 17:00:00 15,6 10,2 - - 0,0
12.08.2017 16:00:00 15,8 10,0 - - 0,0
12.08.2017 15:00:00 16,2 10,6 - - 0,0
12.08.2017 14:00:00 15,7 10,6 - - 0,0
12.08.2017 13:00:00 16,1 11,8 - - 0,0
12.08.2017 12:00:00 14,9 11,0 - - 0,0
12.08.2017 11:00:00 15,0 9,9 - - 0,0
12.08.2017 10:00:00 15,2 12,1 16,0 2,1 0,0
12.08.2017 09:00:00 13,3 12,1 - - 0,2
12.08.2017 08:00:00 13,7 12,6 - - 0,0
12.08.2017 07:00:00 13,6 12,4 - - 0,0
12.08.2017 06:00:00 13,2 11,9 - - 0,0
12.08.2017 05:00:00 13,2 11,9 - - 0,0
12.08.2017 04:00:00 13,3 11,7 - - 0,0
12.08.2017 03:00:00 13,6 11,9 - - 0,0
12.08.2017 02:00:00 13,6 11,6 - - 0,0
12.08.2017 01:00:00 13,6 12,0 - - 0,0
12.08.2017 00:00:00 13,8 12,3 - - 0,0
11.08.2017 23:00:00 14,4 12,5 - - 0,0
11.08.2017 22:00:00 14,4 12,3 - - 0,0
11.08.2017 21:00:00 14,9 12,5 - - 0,0
11.08.2017 20:00:00 15,3 14,0 - - 0,0
11.08.2017 19:00:00 16,5 15,3 - - 0,0
11.08.2017 18:00:00 15,9 15,1 - - 0,6
11.08.2017 17:00:00 15,7 14,8 - - 0,4
11.08.2017 16:00:00 16,0 14,4 - - 0,0
11.08.2017 15:00:00 16,8 14,8 - - 0,0
11.08.2017 14:00:00 15,3 14,1 - - 0,0
11.08.2017 13:00:00 15,2 14,1 - - 0,0
11.08.2017 12:00:00 14,7 13,6 - - 0,0
11.08.2017 11:00:00 14,1 13,3 - - 0,8
11.08.2017 10:00:00 14,1 12,9 16,2 2,3 0,2
11.08.2017 09:00:00 14,1 12,7 - - 0,0
11.08.2017 08:00:00 13,9 12,4 - - 0,0

tt = temperature
td = dewpoint
tt -20cm = temperature -20cm
vv = visibility
rr = precipitation

Next stations